sat.trackr.live / text

‹ back to catalog

STARLINK-4677

NORAD 53600 · 2022-104N

PAYLOAD ACTIVE UNKNOWN

§ Identity

Operator
Country
US
Launch date
2022-08-28
Launch site
AFETR
Launch vehicle
Mass (kg)
RCS (m²)

Purposes: comms

External: N2YO · Heavens-Above · Gunter

§ Orbital elements

Epoch: 2026-05-25T00:42:12.753792Z

Period
95.44 min
Inclination
53.2143°
Eccentricity
0.0001225
Mean motion
15.08835584 rev/d
Perigee alt
538.9 km
Apogee alt
540.6 km
Semi-major
6,917.9 km
B*
4.7644e-5
RAAN
261.8202°
Arg perigee
88.6014°
Mean anomaly
271.5119°
Rev number
20,713

§ Raw data

STARLINK-46771 53600U 22104N   26145.02931428  .00000470  00000+0  47644-4 0  99992 53600  53.2143 261.8202 0001225  88.6014 271.5119 15.08835584207138

JSON: /api/v1/satellites/53600 · /tle

For live sub-satellite position, see the globe view (requires WebGL).

§ Visibility from observer

Set your observer location to see the next 7 days of passes ≥ 10°. The values pass through the URL so the page stays shareable.

No JS? Fill the form by hand. The geolocation button needs JavaScript.